太空蜂星座-126星 (SPACEBEE-126)

导读

**SPACEBEE-126卫星**由美国发射,于2022年3月15日升空,隶属于SpaceBEE卫星星座。作为低轨道物联网通信卫星,它承担着全球范围内机器对机器的数据传输服务,为偏远地区物联网设备连接提供支持,是美国商业航天星座组网部署的组成部分,助力构建天地一体化物联网通信网络。

基本信息
目录编号:
52011
目录名称:
SPACEBEE-126
国际标识:
2022-026D
轨道中心:
EARTH
卫星名称:
太空蜂星座-126星
卫星全名:
太空蜂星座-126星 (SPACEBEE-126)
卫星状态:
已陨落 最后检测时间 2024-02-27
发射日期:
2022-03-15 UTC
国别 :
美国 (US)
星等 :
--
轨道信息
数据来源 国际轨道数据
星历时间: 2024-02-24T10:43:37+0800
轨道信息已过期871天
半长轴: 6558.387km
偏心率: 0.0007672
轨道倾角: 97.453°
近地点辐角 222.937°
升交点赤经 74.172°
平近点角 137.133°
近地点: 175.22km
远地点: 185.284km
周期: 88.096分钟
每日圈数: 16.34584
详细信息
平衡模式:
三轴稳定
覆盖范围:
全球
运营商:
蜂群科技公司
运营商所在国:
美国
制造商(研发单位):
蜂群科技公司
制造商所在国:
美国
使用方式:
暂无
卫星简介
太空蜜蜂(SpaceBEE)皮卫星建立在0.25U立方体卫星平台上,是私营公司蜂群科技公司(Swarm Technologies)开发的卫星星座的一部分。该星座计划由大约150颗皮卫星组成,提供双向卫星通信和数据中继。该卫星已陨落。